Location: Bluff Heights
(33.7692°N, 118.1592°W)
Time: 15:15:41
(UTC+00:00)

N. Korean satellite - Visible Passes

Search period start: 27 November 2022 00:00
Search period end: 07 December 2022 00:00
Orbit: 422 x 454 km, 97.3° (Epoch: 26 November)

Date Brightness Start Highest point End Pass type
(mag) Time Alt. Az. Time Alt. Az. Time Alt. Az.
27 Nov 9.8 01:24:37 10° SW 01:26:17 13° W 01:27:57 10° WNW visible
27 Nov 7.8 12:46:35 10° NNE 12:49:50 40° E 12:53:03 10° S visible
28 Nov 9.9 12:09:52 10° ENE 12:11:02 11° E 12:12:12 10° ESE visible
28 Nov 7.3 13:40:38 10° NNW 13:43:35 27° WNW 13:46:29 10° SW visible
29 Nov 6.6 13:01:37 10° NNE 13:05:02 72° E 13:08:23 10° S visible
30 Nov 9.3 12:23:48 10° NE 12:26:14 18° E 12:28:39 10° SE visible
30 Nov 7.9 13:56:16 10° NNW 13:58:35 17° WNW 14:00:53 10° WSW visible
01 Dec 6.3 13:16:40 10° N 13:20:03 64° WNW 13:23:23 10° SSW visible
02 Dec 9.6 01:15:26 10° SW 01:17:46 18° W 01:20:07 10° NW visible
02 Dec 8.4 12:38:15 10° NE 12:41:16 29° E 12:44:15 10° SSE visible
02 Dec 8.4 14:12:28 10° NW 14:13:25 11° WNW 14:14:22 10° W visible
03 Dec 6.9 13:31:44 10° N 13:34:54 36° WNW 13:38:00 10° SW visible
04 Dec 10.1 01:31:45 10° WSW 01:32:42 11° W 01:33:40 10° WNW visible
04 Dec 7.2 12:52:49 10° NNE 12:56:07 50° E 12:59:23 10° S visible
05 Dec 9.7 12:15:22 10° ENE 12:17:06 13° E 12:18:51 10° SE visible
05 Dec 7.5 13:46:51 10° NNW 13:49:34 23° WNW 13:52:15 10° SW visible
06 Dec 6.3 13:07:25 10° NNE 13:10:48 88° E 13:14:08 10° SSW visible
